User: anonymous   Login
Location: Hebron
(33.0265°N, 96.8636°W)
Time: 00:23:33
(UTC+00:00)
Language:

Cosmos 1939 Rocket - Orbit

View from above orbital plane
View from above orbital plane
View from above satellite
View from above satellite

Ground track
Ground track

The orbit data is extracted from the following two-line orbital elements,

1 19046U 88032B   22147.56056438  .00002067  00000-0  15320-3 0  9993
2 19046  97.3897 147.4358 0035571 311.9532  47.8664 15.03673918843476
Epoch (UTC): 27 May 2022 13:27:12
Eccentricity: 0.0035571
inclination: 97.3897°
perigee height: 531 km
apogee height: 580 km
right ascension of ascending node: 147.4358°
argument of perigee: 311.9532°
revolutions per day: 15.03673918
mean anomaly at epoch: 47.8664°
orbit number at epoch: 84347

The dashed part of the orbit path shows where the satellite is in the earth's shadow,  

DLR